Year,Month,Day,Hour,Minute,Value (Times are PST for temperature in C)
2014,09,15,00,00,12.60
2014,09,15,00,01,12.50
2014,09,15,00,02,12.50
2014,09,15,00,03,12.50
2014,09,15,00,04,12.50
2014,09,15,00,05,12.40
2014,09,15,00,06,12.40
2014,09,15,00,07,12.40
2014,09,15,00,08,12.40
2014,09,15,00,09,12.30
2014,09,15,00,10,12.30
2014,09,15,00,11,12.30
2014,09,15,00,12,12.30
2014,09,15,00,13,12.30
2014,09,15,00,14,12.30
2014,09,15,00,15,12.30
2014,09,15,00,16,12.30
2014,09,15,00,17,12.30
2014,09,15,00,18,12.30
2014,09,15,00,19,12.30
2014,09,15,00,20,12.30
2014,09,15,00,21,12.30
2014,09,15,00,22,12.30
2014,09,15,00,23,12.20
2014,09,15,00,24,12.20
2014,09,15,00,25,12.20
2014,09,15,00,26,12.20
2014,09,15,00,27,12.20
2014,09,15,00,28,12.20
2014,09,15,00,29,12.20
2014,09,15,00,30,12.20
2014,09,15,00,31,12.10
2014,09,15,00,32,12.10
2014,09,15,00,33,12.10
2014,09,15,00,34,12.10
2014,09,15,00,35,12.10
2014,09,15,00,36,12.10
2014,09,15,00,37,12.00
2014,09,15,00,38,12.00
2014,09,15,00,39,12.00
2014,09,15,00,40,12.00
2014,09,15,00,41,12.00
2014,09,15,00,42,11.90
2014,09,15,00,43,11.90
2014,09,15,00,44,11.90
2014,09,15,00,45,11.90
2014,09,15,00,46,11.80
2014,09,15,00,47,11.80
2014,09,15,00,48,11.80
2014,09,15,00,49,11.80
2014,09,15,00,50,11.80
2014,09,15,00,51,11.80
2014,09,15,00,52,11.80
2014,09,15,00,53,11.80
2014,09,15,00,54,11.80
2014,09,15,00,55,11.80
2014,09,15,00,56,11.80
2014,09,15,00,57,11.80
2014,09,15,00,58,11.80
2014,09,15,00,59,11.70
2014,09,15,01,00,11.70
2014,09,15,01,01,11.70
2014,09,15,01,02,11.70
2014,09,15,01,03,11.70
2014,09,15,01,04,11.70
2014,09,15,01,05,11.60
2014,09,15,01,06,11.60
2014,09,15,01,07,11.60
2014,09,15,01,08,11.70
2014,09,15,01,09,11.70
2014,09,15,01,10,11.70
2014,09,15,01,11,11.70
2014,09,15,01,12,11.70
2014,09,15,01,13,11.80
2014,09,15,01,14,11.80
2014,09,15,01,15,11.80
2014,09,15,01,16,11.80
2014,09,15,01,17,11.80
2014,09,15,01,18,11.80
2014,09,15,01,19,11.80
2014,09,15,01,20,11.80
2014,09,15,01,21,11.80
2014,09,15,01,22,11.90
2014,09,15,01,23,11.90
2014,09,15,01,24,11.90
2014,09,15,01,25,11.90
2014,09,15,01,26,11.90
2014,09,15,01,27,12.00
2014,09,15,01,28,12.00
2014,09,15,01,29,12.00
2014,09,15,01,30,12.00
2014,09,15,01,31,12.10
2014,09,15,01,32,12.10
2014,09,15,01,33,12.10
2014,09,15,01,34,12.10
2014,09,15,01,35,12.10
2014,09,15,01,36,12.00
2014,09,15,01,37,12.00
2014,09,15,01,38,12.00
2014,09,15,01,39,11.90
2014,09,15,01,40,11.90
2014,09,15,01,41,11.90
2014,09,15,01,42,11.80
2014,09,15,01,43,11.80
2014,09,15,01,44,11.80
2014,09,15,01,45,11.80
2014,09,15,01,46,11.70
2014,09,15,01,47,11.70
2014,09,15,01,48,11.60
2014,09,15,01,49,11.60
2014,09,15,01,50,11.60
2014,09,15,01,51,11.60
2014,09,15,01,52,11.60
2014,09,15,01,53,11.50
2014,09,15,01,54,11.40
2014,09,15,01,55,11.40
2014,09,15,01,56,11.40
2014,09,15,01,57,11.40
2014,09,15,01,58,11.40
2014,09,15,01,59,11.40
2014,09,15,02,00,11.40
2014,09,15,02,01,11.30
2014,09,15,02,02,11.30
2014,09,15,02,03,11.30
2014,09,15,02,04,11.30
2014,09,15,02,05,11.30
2014,09,15,02,06,11.30
2014,09,15,02,07,11.20
2014,09,15,02,08,11.20
2014,09,15,02,09,11.20
2014,09,15,02,10,11.20
2014,09,15,02,11,11.20
2014,09,15,02,12,11.20
2014,09,15,02,13,11.30
2014,09,15,02,14,11.30
2014,09,15,02,15,11.30
2014,09,15,02,16,11.30
2014,09,15,02,17,11.40
2014,09,15,02,18,11.40
2014,09,15,02,19,11.40
2014,09,15,02,20,11.40
2014,09,15,02,21,11.40
2014,09,15,02,22,11.40
2014,09,15,02,23,11.40
2014,09,15,02,24,11.40
2014,09,15,02,25,11.40
2014,09,15,02,26,11.40
2014,09,15,02,27,11.40
2014,09,15,02,28,11.40
2014,09,15,02,29,11.40
2014,09,15,02,30,11.40
2014,09,15,02,31,11.50
2014,09,15,02,32,11.60
2014,09,15,02,33,11.60
2014,09,15,02,34,11.60
2014,09,15,02,35,11.60
2014,09,15,02,36,11.60
2014,09,15,02,37,11.60
2014,09,15,02,38,11.60
2014,09,15,02,39,11.60
2014,09,15,02,40,11.60
2014,09,15,02,41,11.50
2014,09,15,02,42,11.40
2014,09,15,02,43,11.40
2014,09,15,02,44,11.40
2014,09,15,02,45,11.40
2014,09,15,02,46,11.40
2014,09,15,02,47,11.40
2014,09,15,02,48,11.40
2014,09,15,02,49,11.40
2014,09,15,02,50,11.50
2014,09,15,02,51,11.60
2014,09,15,02,52,11.60
2014,09,15,02,53,11.60
2014,09,15,02,54,11.70
2014,09,15,02,55,11.70
2014,09,15,02,56,11.70
2014,09,15,02,57,11.70
2014,09,15,02,58,11.70
2014,09,15,02,59,11.80
2014,09,15,03,00,11.80
2014,09,15,03,01,11.80
2014,09,15,03,02,11.80
2014,09,15,03,03,11.80
2014,09,15,03,04,11.80
2014,09,15,03,05,11.80
2014,09,15,03,06,11.80
2014,09,15,03,07,11.80
2014,09,15,03,08,11.80
2014,09,15,03,09,11.80
2014,09,15,03,10,11.80
2014,09,15,03,11,11.80
2014,09,15,03,12,11.80
2014,09,15,03,13,11.90
2014,09,15,03,14,11.90
2014,09,15,03,15,11.90
2014,09,15,03,16,11.90
2014,09,15,03,17,11.90
2014,09,15,03,18,11.90
2014,09,15,03,19,11.90
2014,09,15,03,20,11.90
2014,09,15,03,21,11.90
2014,09,15,03,22,11.90
2014,09,15,03,23,11.90
2014,09,15,03,24,11.90
2014,09,15,03,25,11.90
2014,09,15,03,26,11.90
2014,09,15,03,27,11.90
2014,09,15,03,28,11.90
2014,09,15,03,29,11.90
2014,09,15,03,30,11.90
2014,09,15,03,31,11.90
2014,09,15,03,32,11.90
2014,09,15,03,33,11.80
2014,09,15,03,34,11.80
2014,09,15,03,35,11.80
2014,09,15,03,36,11.80
2014,09,15,03,37,11.80
2014,09,15,03,38,11.80
2014,09,15,03,39,11.80
2014,09,15,03,40,11.80
2014,09,15,03,41,11.80
2014,09,15,03,42,11.80
2014,09,15,03,43,11.70
2014,09,15,03,44,11.70
2014,09,15,03,45,11.70
2014,09,15,03,46,11.70
2014,09,15,03,47,11.60
2014,09,15,03,48,11.60
2014,09,15,03,49,11.60
2014,09,15,03,50,11.60
2014,09,15,03,51,11.60
2014,09,15,03,52,11.60
2014,09,15,03,53,11.50
2014,09,15,03,54,11.40
2014,09,15,03,55,11.40
2014,09,15,03,56,11.40
2014,09,15,03,57,11.40
2014,09,15,03,58,11.40
2014,09,15,03,59,11.40
2014,09,15,04,00,11.30
2014,09,15,04,01,11.30
2014,09,15,04,02,11.30
2014,09,15,04,03,11.30
2014,09,15,04,04,11.30
2014,09,15,04,05,11.30
2014,09,15,04,06,11.20
2014,09,15,04,07,11.20
2014,09,15,04,08,11.20
2014,09,15,04,09,11.20
2014,09,15,04,10,11.20
2014,09,15,04,11,11.20
2014,09,15,04,12,11.20
2014,09,15,04,13,11.20
2014,09,15,04,14,11.20
2014,09,15,04,15,11.20
2014,09,15,04,16,11.20
2014,09,15,04,17,11.20
2014,09,15,04,18,11.20
2014,09,15,04,19,11.10
2014,09,15,04,20,11.10
2014,09,15,04,21,11.10
2014,09,15,04,22,11.10
2014,09,15,04,23,11.10
2014,09,15,04,24,11.10
2014,09,15,04,25,11.10
2014,09,15,04,26,11.10
2014,09,15,04,27,11.00
2014,09,15,04,28,10.90
2014,09,15,04,29,10.90
2014,09,15,04,30,10.90
2014,09,15,04,31,10.90
2014,09,15,04,32,10.90
2014,09,15,04,33,10.90
2014,09,15,04,34,10.90
2014,09,15,04,35,10.90
2014,09,15,04,36,11.00
2014,09,15,04,37,11.10
2014,09,15,04,38,11.10
2014,09,15,04,39,11.10
2014,09,15,04,40,11.10
2014,09,15,04,41,11.10
2014,09,15,04,42,11.20
2014,09,15,04,43,11.20
2014,09,15,04,44,11.20
2014,09,15,04,45,11.20
2014,09,15,04,46,11.20
2014,09,15,04,47,11.20
2014,09,15,04,48,11.20
2014,09,15,04,49,11.20
2014,09,15,04,50,11.20
2014,09,15,04,51,11.20
2014,09,15,04,52,11.20
2014,09,15,04,53,11.20
2014,09,15,04,54,11.20
2014,09,15,04,55,11.20
2014,09,15,04,56,11.20
2014,09,15,04,57,11.10
2014,09,15,04,58,11.10
2014,09,15,04,59,11.10
2014,09,15,05,00,11.10
2014,09,15,05,01,11.10
2014,09,15,05,02,11.10
2014,09,15,05,03,10.90
2014,09,15,05,04,10.90
2014,09,15,05,05,10.90
2014,09,15,05,06,10.90
2014,09,15,05,07,10.90
2014,09,15,05,08,10.90
2014,09,15,05,09,10.80
2014,09,15,05,10,10.80
2014,09,15,05,11,10.80
2014,09,15,05,12,10.70
2014,09,15,05,13,10.70
2014,09,15,05,14,10.70
2014,09,15,05,15,10.70
2014,09,15,05,16,10.70
2014,09,15,05,17,10.70
2014,09,15,05,18,10.70
2014,09,15,05,19,10.70
2014,09,15,05,20,10.70
2014,09,15,05,21,10.70
2014,09,15,05,22,10.80
2014,09,15,05,23,10.80
2014,09,15,05,24,10.80
2014,09,15,05,25,10.80
2014,09,15,05,26,10.80
2014,09,15,05,27,10.80
2014,09,15,05,28,10.80
2014,09,15,05,29,10.70
2014,09,15,05,30,10.70
2014,09,15,05,31,10.70
2014,09,15,05,32,10.70
2014,09,15,05,33,10.70
2014,09,15,05,34,10.60
2014,09,15,05,35,10.60
2014,09,15,05,36,10.60
2014,09,15,05,37,10.60
2014,09,15,05,38,10.60
2014,09,15,05,39,10.60
2014,09,15,05,40,10.60
2014,09,15,05,41,10.50
2014,09,15,05,42,10.40
2014,09,15,05,43,10.40
2014,09,15,05,44,10.40
2014,09,15,05,45,10.40
2014,09,15,05,46,10.40
2014,09,15,05,47,10.30
2014,09,15,05,48,10.30
2014,09,15,05,49,10.30
2014,09,15,05,50,10.30
2014,09,15,05,51,10.20
2014,09,15,05,52,10.20
2014,09,15,05,53,10.20
2014,09,15,05,54,10.20
2014,09,15,05,55,10.20
2014,09,15,05,56,10.10
2014,09,15,05,57,10.10
2014,09,15,05,58,10.10
2014,09,15,05,59,10.10
2014,09,15,06,00,10.10
2014,09,15,06,01,10.10
2014,09,15,06,02,10.10
2014,09,15,06,03,10.10
2014,09,15,06,04,10.10
2014,09,15,06,05,10.10
2014,09,15,06,06,10.10
2014,09,15,06,07,10.10
2014,09,15,06,08,10.00
2014,09,15,06,09,9.90
2014,09,15,06,10,9.90
2014,09,15,06,11,9.90
2014,09,15,06,12,9.90
2014,09,15,06,13,9.90
2014,09,15,06,14,9.90
2014,09,15,06,15,9.90
2014,09,15,06,16,9.90
2014,09,15,06,17,9.90
2014,09,15,06,18,9.90
2014,09,15,06,19,9.80
2014,09,15,06,20,9.80
2014,09,15,06,21,9.80
2014,09,15,06,22,9.80
2014,09,15,06,23,9.80
2014,09,15,06,24,9.70
2014,09,15,06,25,9.70
2014,09,15,06,26,9.70
2014,09,15,06,27,9.70
2014,09,15,06,28,9.70
2014,09,15,06,29,9.70
2014,09,15,06,30,9.70
2014,09,15,06,31,9.70
2014,09,15,06,32,9.70
2014,09,15,06,33,9.70
2014,09,15,06,34,9.70
2014,09,15,06,35,9.70
2014,09,15,06,36,9.60
2014,09,15,06,37,9.60
2014,09,15,06,38,9.60
2014,09,15,06,39,9.60
2014,09,15,06,40,9.50
2014,09,15,06,41,9.50
2014,09,15,06,42,9.50
2014,09,15,06,43,9.50
2014,09,15,06,44,9.40
2014,09,15,06,45,9.40
2014,09,15,06,46,9.40
2014,09,15,06,47,9.40
2014,09,15,06,48,9.40
2014,09,15,06,49,9.40
2014,09,15,06,50,9.40
2014,09,15,06,51,9.40
2014,09,15,06,52,9.40
2014,09,15,06,53,9.40
2014,09,15,06,54,9.30
2014,09,15,06,55,9.30
2014,09,15,06,56,9.30
2014,09,15,06,57,9.30
2014,09,15,06,58,9.40
2014,09,15,06,59,9.40
2014,09,15,07,00,9.40
2014,09,15,07,01,9.40
2014,09,15,07,02,9.40
2014,09,15,07,03,9.40
2014,09,15,07,04,9.40
2014,09,15,07,05,9.40
2014,09,15,07,06,9.40
2014,09,15,07,07,9.40
2014,09,15,07,08,9.40
2014,09,15,07,09,9.40
2014,09,15,07,10,9.40
2014,09,15,07,11,9.30
2014,09,15,07,12,9.30
2014,09,15,07,13,9.30
2014,09,15,07,14,9.30
2014,09,15,07,15,9.30
2014,09,15,07,16,9.30
2014,09,15,07,17,9.30
2014,09,15,07,18,9.40
2014,09,15,07,19,9.40
2014,09,15,07,20,9.40
2014,09,15,07,21,9.40
2014,09,15,07,22,9.50
2014,09,15,07,23,9.50
2014,09,15,07,24,9.50
2014,09,15,07,25,9.50
2014,09,15,07,26,9.60
2014,09,15,07,27,9.60
2014,09,15,07,28,9.60
2014,09,15,07,29,9.70
2014,09,15,07,30,9.70
2014,09,15,07,31,9.70
2014,09,15,07,32,9.80
2014,09,15,07,33,9.80
2014,09,15,07,34,9.90
2014,09,15,07,35,9.90
2014,09,15,07,36,9.90
2014,09,15,07,37,9.90
2014,09,15,07,38,9.90
2014,09,15,07,39,10.00
2014,09,15,07,40,10.10
2014,09,15,07,41,10.10
2014,09,15,07,42,10.20
2014,09,15,07,43,10.30
2014,09,15,07,44,10.40
2014,09,15,07,45,10.40
2014,09,15,07,46,10.50
2014,09,15,07,47,10.60
2014,09,15,07,48,10.70
2014,09,15,07,49,10.80
2014,09,15,07,50,10.90
2014,09,15,07,51,11.00
2014,09,15,07,52,11.10
2014,09,15,07,53,11.20
2014,09,15,07,54,11.30
2014,09,15,07,55,11.40
2014,09,15,07,56,11.60
2014,09,15,07,57,11.70
2014,09,15,07,58,11.80
2014,09,15,07,59,11.80
2014,09,15,08,00,11.90
2014,09,15,08,01,12.00
2014,09,15,08,02,12.00
2014,09,15,08,03,12.10
2014,09,15,08,04,12.20
2014,09,15,08,05,12.30
2014,09,15,08,06,12.30
2014,09,15,08,07,12.40
2014,09,15,08,08,12.40
2014,09,15,08,09,12.50
2014,09,15,08,10,12.60
2014,09,15,08,11,12.70
2014,09,15,08,12,12.80
2014,09,15,08,13,12.90
2014,09,15,08,14,13.00
2014,09,15,08,15,13.10
2014,09,15,08,16,13.20
2014,09,15,08,17,13.30
2014,09,15,08,18,13.30
2014,09,15,08,19,13.50
2014,09,15,08,20,13.50
2014,09,15,08,21,13.60
2014,09,15,08,22,13.70
2014,09,15,08,23,13.90
2014,09,15,08,24,14.10
2014,09,15,08,25,14.30
2014,09,15,08,26,14.50
2014,09,15,08,27,14.70
2014,09,15,08,28,14.80
2014,09,15,08,29,15.00
2014,09,15,08,30,15.00
2014,09,15,08,31,15.10
2014,09,15,08,32,15.20
2014,09,15,08,33,15.30
2014,09,15,08,34,15.30
2014,09,15,08,35,15.30
2014,09,15,08,36,15.40
2014,09,15,08,37,15.50
2014,09,15,08,38,15.50
2014,09,15,08,39,15.60
2014,09,15,08,40,15.60
2014,09,15,08,41,15.70
2014,09,15,08,42,15.80
2014,09,15,08,43,15.80
2014,09,15,08,44,16.00
2014,09,15,08,45,16.10
2014,09,15,08,46,16.10
2014,09,15,08,47,16.20
2014,09,15,08,48,16.30
2014,09,15,08,49,16.40
2014,09,15,08,50,16.50
2014,09,15,08,51,16.60
2014,09,15,08,52,16.70
2014,09,15,08,53,16.80
2014,09,15,08,54,16.80
2014,09,15,08,55,16.90
2014,09,15,08,56,17.00
2014,09,15,08,57,17.10
2014,09,15,08,58,17.20
2014,09,15,08,59,17.30
2014,09,15,09,00,17.40
2014,09,15,09,01,17.50
2014,09,15,09,02,17.70
2014,09,15,09,03,17.80
2014,09,15,09,04,17.90
2014,09,15,09,05,18.00
2014,09,15,09,06,18.20
2014,09,15,09,07,18.30
2014,09,15,09,08,18.40
2014,09,15,09,09,18.50
2014,09,15,09,10,18.60
2014,09,15,09,11,18.70
2014,09,15,09,12,18.80
2014,09,15,09,13,18.90
2014,09,15,09,14,18.90
2014,09,15,09,15,19.10
2014,09,15,09,16,19.10
2014,09,15,09,17,19.20
2014,09,15,09,18,19.30
2014,09,15,09,19,19.40
2014,09,15,09,20,19.40
2014,09,15,09,21,19.50
2014,09,15,09,22,19.60
2014,09,15,09,23,19.60
2014,09,15,09,24,19.70
2014,09,15,09,25,19.80
2014,09,15,09,26,19.80
2014,09,15,09,27,19.90
2014,09,15,09,28,20.00
2014,09,15,09,29,20.10
2014,09,15,09,30,20.20
2014,09,15,09,31,20.20
2014,09,15,09,32,20.40
2014,09,15,09,33,20.50
2014,09,15,09,34,20.50
2014,09,15,09,35,20.60
2014,09,15,09,36,20.70
2014,09,15,09,37,20.70
2014,09,15,09,38,20.80
2014,09,15,09,39,20.80
2014,09,15,09,40,20.90
2014,09,15,09,41,21.00
2014,09,15,09,42,21.00
2014,09,15,09,43,21.10
2014,09,15,09,44,21.20
2014,09,15,09,45,21.30
2014,09,15,09,46,21.30
2014,09,15,09,47,21.50
2014,09,15,09,48,21.60
2014,09,15,09,49,21.70
2014,09,15,09,50,21.70
2014,09,15,09,51,21.80
2014,09,15,09,52,21.80
2014,09,15,09,53,21.90
2014,09,15,09,54,21.90
2014,09,15,09,55,22.00
2014,09,15,09,56,22.00
2014,09,15,09,57,22.10
2014,09,15,09,58,22.20
2014,09,15,09,59,22.20
2014,09,15,10,00,22.30
2014,09,15,10,01,22.40
2014,09,15,10,02,22.40
2014,09,15,10,03,22.40
2014,09,15,10,04,22.50
2014,09,15,10,05,22.50
2014,09,15,10,06,22.50
2014,09,15,10,07,22.50
2014,09,15,10,08,22.50
2014,09,15,10,09,22.50
2014,09,15,10,10,22.60
2014,09,15,10,11,22.70
2014,09,15,10,12,22.80
2014,09,15,10,13,22.80
2014,09,15,10,14,22.90
2014,09,15,10,15,22.90
2014,09,15,10,16,22.90
2014,09,15,10,17,23.00
2014,09,15,10,18,23.10
2014,09,15,10,19,23.10
2014,09,15,10,20,23.20
2014,09,15,10,21,23.30
2014,09,15,10,22,23.30
2014,09,15,10,23,23.30
2014,09,15,10,24,23.30
2014,09,15,10,25,23.30
2014,09,15,10,26,23.40
2014,09,15,10,27,23.40
2014,09,15,10,28,23.50
2014,09,15,10,29,23.60
2014,09,15,10,30,23.60
2014,09,15,10,31,23.70
2014,09,15,10,32,23.70
2014,09,15,10,33,23.70
2014,09,15,10,34,23.70
2014,09,15,10,35,23.70
2014,09,15,10,36,23.60
2014,09,15,10,37,23.60
2014,09,15,10,38,23.60
2014,09,15,10,39,23.60
2014,09,15,10,40,23.60
2014,09,15,10,41,23.60
2014,09,15,10,42,23.70
2014,09,15,10,43,23.70
2014,09,15,10,44,23.70
2014,09,15,10,45,23.70
2014,09,15,10,46,23.80
2014,09,15,10,47,23.80
2014,09,15,10,48,23.80
2014,09,15,10,49,23.80
2014,09,15,10,50,23.80
2014,09,15,10,51,23.70
2014,09,15,10,52,23.80
2014,09,15,10,53,23.80
2014,09,15,10,54,23.70
2014,09,15,10,55,23.70
2014,09,15,10,56,23.70
2014,09,15,10,57,23.70
2014,09,15,10,58,23.70
2014,09,15,10,59,23.70
2014,09,15,11,00,23.70
2014,09,15,11,01,23.70
2014,09,15,11,02,23.70
2014,09,15,11,03,23.60
2014,09,15,11,04,23.60
2014,09,15,11,05,23.60
2014,09,15,11,06,23.60
2014,09,15,11,07,23.70
2014,09,15,11,08,23.70
2014,09,15,11,09,23.70
2014,09,15,11,10,23.70
2014,09,15,11,11,23.70
2014,09,15,11,12,23.70
2014,09,15,11,13,23.70
2014,09,15,11,14,23.70
2014,09,15,11,15,23.70
2014,09,15,11,16,23.70
2014,09,15,11,17,23.70
2014,09,15,11,18,23.70
2014,09,15,11,19,23.70
2014,09,15,11,20,23.80
2014,09,15,11,21,23.80
2014,09,15,11,22,23.80
2014,09,15,11,23,23.90
2014,09,15,11,24,23.90
2014,09,15,11,25,23.90
2014,09,15,11,26,24.00
2014,09,15,11,27,24.10
2014,09,15,11,28,24.10
2014,09,15,11,29,24.10
2014,09,15,11,30,24.10
2014,09,15,11,31,24.10
2014,09,15,11,32,24.10
2014,09,15,11,33,24.20
2014,09,15,11,34,24.20
2014,09,15,11,35,24.30
2014,09,15,11,36,24.30
2014,09,15,11,37,24.40
2014,09,15,11,38,24.40
2014,09,15,11,39,24.40
2014,09,15,11,40,24.40
2014,09,15,11,41,24.40
2014,09,15,11,42,24.30
2014,09,15,11,43,24.20
2014,09,15,11,44,24.00
2014,09,15,11,45,23.90
2014,09,15,11,46,23.80
2014,09,15,11,47,23.80
2014,09,15,11,48,23.80
2014,09,15,11,49,23.90
2014,09,15,11,50,23.90
2014,09,15,11,51,23.90
2014,09,15,11,52,23.90
2014,09,15,11,53,24.00
2014,09,15,11,54,24.10
2014,09,15,11,55,24.10
2014,09,15,11,56,24.20
2014,09,15,11,57,24.30
2014,09,15,11,58,24.50
2014,09,15,11,59,24.60
2014,09,15,12,00,24.70
2014,09,15,12,01,24.80
2014,09,15,12,02,24.80
2014,09,15,12,03,24.80
2014,09,15,12,04,24.70
2014,09,15,12,05,24.70
2014,09,15,12,06,24.70
2014,09,15,12,07,24.70
2014,09,15,12,08,24.60
2014,09,15,12,09,24.60
2014,09,15,12,10,24.50
2014,09,15,12,11,24.50
2014,09,15,12,12,24.50
2014,09,15,12,13,24.60
2014,09,15,12,14,24.60
2014,09,15,12,15,24.60
2014,09,15,12,16,24.60
2014,09,15,12,17,24.70
2014,09,15,12,18,24.70
2014,09,15,12,19,24.70
2014,09,15,12,20,24.80
2014,09,15,12,21,24.80
2014,09,15,12,22,24.70
2014,09,15,12,23,24.70
2014,09,15,12,24,24.60
2014,09,15,12,25,24.70
2014,09,15,12,26,24.70
2014,09,15,12,27,24.80
2014,09,15,12,28,24.80
2014,09,15,12,29,24.90
2014,09,15,12,30,25.00
2014,09,15,12,31,25.10
2014,09,15,12,32,25.10
2014,09,15,12,33,25.20
2014,09,15,12,34,25.20
2014,09,15,12,35,25.30
2014,09,15,12,36,25.40
2014,09,15,12,37,25.40
2014,09,15,12,38,25.40
2014,09,15,12,39,25.30
2014,09,15,12,40,25.30
2014,09,15,12,41,25.30
2014,09,15,12,42,25.30
2014,09,15,12,43,25.40
2014,09,15,12,44,25.40
2014,09,15,12,45,25.30
2014,09,15,12,46,25.20
2014,09,15,12,47,25.10
2014,09,15,12,48,25.10
2014,09,15,12,49,25.10
2014,09,15,12,50,25.10
2014,09,15,12,51,25.10
2014,09,15,12,52,25.10
2014,09,15,12,53,25.10
2014,09,15,12,54,25.10
2014,09,15,12,55,25.10
2014,09,15,12,56,25.00
2014,09,15,12,57,25.00
2014,09,15,12,58,25.10
2014,09,15,12,59,25.20
2014,09,15,13,00,25.20
2014,09,15,13,01,25.20
2014,09,15,13,02,25.20
2014,09,15,13,03,25.20
2014,09,15,13,04,25.20
2014,09,15,13,05,25.20
2014,09,15,13,06,25.20
2014,09,15,13,07,25.30
2014,09,15,13,08,25.40
2014,09,15,13,09,25.40
2014,09,15,13,10,25.40
2014,09,15,13,11,25.50
2014,09,15,13,12,25.50
2014,09,15,13,13,25.50
2014,09,15,13,14,25.60
2014,09,15,13,15,25.60
2014,09,15,13,16,25.70
2014,09,15,13,17,25.80
2014,09,15,13,18,25.90
2014,09,15,13,19,26.00
2014,09,15,13,20,26.00
2014,09,15,13,21,26.10
2014,09,15,13,22,26.00
2014,09,15,13,23,26.00
2014,09,15,13,24,25.90
2014,09,15,13,25,25.80
2014,09,15,13,26,25.70
2014,09,15,13,27,25.70
2014,09,15,13,28,25.70
2014,09,15,13,29,25.80
2014,09,15,13,30,25.80
2014,09,15,13,31,25.80
2014,09,15,13,32,25.80
2014,09,15,13,33,25.70
2014,09,15,13,34,25.70
2014,09,15,13,35,25.70
2014,09,15,13,36,25.70
2014,09,15,13,37,25.80
2014,09,15,13,38,25.80
2014,09,15,13,39,25.80
2014,09,15,13,40,25.80
2014,09,15,13,41,25.80
2014,09,15,13,42,25.80
2014,09,15,13,43,25.80
2014,09,15,13,44,25.90
2014,09,15,13,45,26.00
2014,09,15,13,46,26.00
2014,09,15,13,47,26.10
2014,09,15,13,48,26.10
2014,09,15,13,49,26.10
2014,09,15,13,50,26.10
2014,09,15,13,51,26.20
2014,09,15,13,52,26.20
2014,09,15,13,53,26.20
2014,09,15,13,54,26.20
2014,09,15,13,55,26.00
2014,09,15,13,56,26.00
2014,09,15,13,57,25.90
2014,09,15,13,58,25.90
2014,09,15,13,59,25.90
2014,09,15,14,00,25.90
2014,09,15,14,01,25.90
2014,09,15,14,02,25.90
2014,09,15,14,03,26.00
2014,09,15,14,04,26.10
2014,09,15,14,05,26.20
2014,09,15,14,06,26.30
2014,09,15,14,07,26.40
2014,09,15,14,08,26.40
2014,09,15,14,09,26.50
2014,09,15,14,10,26.60
2014,09,15,14,11,26.60
2014,09,15,14,12,26.60
2014,09,15,14,13,26.60
2014,09,15,14,14,26.60
2014,09,15,14,15,26.60
2014,09,15,14,16,26.50
2014,09,15,14,17,26.40
2014,09,15,14,18,26.30
2014,09,15,14,19,26.20
2014,09,15,14,20,26.20
2014,09,15,14,21,26.30
2014,09,15,14,22,26.40
2014,09,15,14,23,26.50
2014,09,15,14,24,26.60
2014,09,15,14,25,26.60
2014,09,15,14,26,26.60
2014,09,15,14,27,26.60
2014,09,15,14,28,26.60
2014,09,15,14,29,26.60
2014,09,15,14,30,26.60
2014,09,15,14,31,26.70
2014,09,15,14,32,26.60
2014,09,15,14,33,26.60
2014,09,15,14,34,26.60
2014,09,15,14,35,26.70
2014,09,15,14,36,26.80
2014,09,15,14,37,26.80
2014,09,15,14,38,26.80
2014,09,15,14,39,26.70
2014,09,15,14,40,26.60
2014,09,15,14,41,26.60
2014,09,15,14,42,26.60
2014,09,15,14,43,26.60
2014,09,15,14,44,26.70
2014,09,15,14,45,26.60
2014,09,15,14,46,26.60
2014,09,15,14,47,26.60
2014,09,15,14,48,26.60
2014,09,15,14,49,26.70
2014,09,15,14,50,26.70
2014,09,15,14,51,26.70
2014,09,15,14,52,26.70
2014,09,15,14,53,26.70
2014,09,15,14,54,26.70
2014,09,15,14,55,26.70
2014,09,15,14,56,26.60
2014,09,15,14,57,26.60
2014,09,15,14,58,26.70
2014,09,15,14,59,26.70
2014,09,15,15,00,26.70
2014,09,15,15,01,26.70
2014,09,15,15,02,26.70
2014,09,15,15,03,26.80
2014,09,15,15,04,26.80
2014,09,15,15,05,26.90
2014,09,15,15,06,26.90
2014,09,15,15,07,27.00
2014,09,15,15,08,27.10
2014,09,15,15,09,27.10
2014,09,15,15,10,27.10
2014,09,15,15,11,26.90
2014,09,15,15,12,26.80
2014,09,15,15,13,26.80
2014,09,15,15,14,26.80
2014,09,15,15,15,26.90
2014,09,15,15,16,26.90
2014,09,15,15,17,26.80
2014,09,15,15,18,26.80
2014,09,15,15,19,26.90
2014,09,15,15,20,26.90
2014,09,15,15,21,26.90
2014,09,15,15,22,26.90
2014,09,15,15,23,26.90
2014,09,15,15,24,26.90
2014,09,15,15,25,26.90
2014,09,15,15,26,26.80
2014,09,15,15,27,26.80
2014,09,15,15,28,26.70
2014,09,15,15,29,26.70
2014,09,15,15,30,26.70
2014,09,15,15,31,26.70
2014,09,15,15,32,26.70
2014,09,15,15,33,26.70
2014,09,15,15,34,26.80
2014,09,15,15,35,26.90
2014,09,15,15,36,26.90
2014,09,15,15,37,26.90
2014,09,15,15,38,26.90
2014,09,15,15,39,27.10
2014,09,15,15,40,27.10
2014,09,15,15,41,27.10
2014,09,15,15,42,27.20
2014,09,15,15,43,27.10
2014,09,15,15,44,27.10
2014,09,15,15,45,26.90
2014,09,15,15,46,26.90
2014,09,15,15,47,26.90
2014,09,15,15,48,26.80
2014,09,15,15,49,26.80
2014,09,15,15,50,26.70
2014,09,15,15,51,26.60
2014,09,15,15,52,26.60
2014,09,15,15,53,26.60
2014,09,15,15,54,26.60
2014,09,15,15,55,26.60
2014,09,15,15,56,26.60
2014,09,15,15,57,26.60
2014,09,15,15,58,26.60
2014,09,15,15,59,26.60
2014,09,15,16,00,26.60
2014,09,15,16,01,26.60
2014,09,15,16,02,26.60
2014,09,15,16,03,26.60
2014,09,15,16,04,26.60
2014,09,15,16,05,26.60
2014,09,15,16,06,26.60
2014,09,15,16,07,26.60
2014,09,15,16,08,26.60
2014,09,15,16,09,26.50
2014,09,15,16,10,26.30
2014,09,15,16,11,26.20
2014,09,15,16,12,26.00
2014,09,15,16,13,25.90
2014,09,15,16,14,25.90
2014,09,15,16,15,25.80
2014,09,15,16,16,25.60
2014,09,15,16,17,25.60
2014,09,15,16,18,25.50
2014,09,15,16,19,25.40
2014,09,15,16,20,25.40
2014,09,15,16,21,25.40
2014,09,15,16,22,25.40
2014,09,15,16,23,25.40
2014,09,15,16,24,25.40
2014,09,15,16,25,25.40
2014,09,15,16,26,25.40
2014,09,15,16,27,25.40
2014,09,15,16,28,25.50
2014,09,15,16,29,25.50
2014,09,15,16,30,25.50
2014,09,15,16,31,25.50
2014,09,15,16,32,25.50
2014,09,15,16,33,25.50
2014,09,15,16,34,25.40
2014,09,15,16,35,25.40
2014,09,15,16,36,25.40
2014,09,15,16,37,25.50
2014,09,15,16,38,25.50
2014,09,15,16,39,25.50
2014,09,15,16,40,25.50
2014,09,15,16,41,25.50
2014,09,15,16,42,25.50
2014,09,15,16,43,25.50
2014,09,15,16,44,25.50
2014,09,15,16,45,25.50
2014,09,15,16,46,25.50
2014,09,15,16,47,25.60
2014,09,15,16,48,25.60
2014,09,15,16,49,25.50
2014,09,15,16,50,25.50
2014,09,15,16,51,25.40
2014,09,15,16,52,25.40
2014,09,15,16,53,25.40
2014,09,15,16,54,25.40
2014,09,15,16,55,25.40
2014,09,15,16,56,25.40
2014,09,15,16,57,25.30
2014,09,15,16,58,25.30
2014,09,15,16,59,25.30
2014,09,15,17,00,25.30
2014,09,15,17,01,25.30
2014,09,15,17,02,25.40
2014,09,15,17,03,25.40
2014,09,15,17,04,25.40
2014,09,15,17,05,25.50
2014,09,15,17,06,25.40
2014,09,15,17,07,25.40
2014,09,15,17,08,25.40
2014,09,15,17,09,25.30
2014,09,15,17,10,25.20
2014,09,15,17,11,25.10
2014,09,15,17,12,25.00
2014,09,15,17,13,25.00
2014,09,15,17,14,25.00
2014,09,15,17,15,25.00
2014,09,15,17,16,25.00
2014,09,15,17,17,25.00
2014,09,15,17,18,25.00
2014,09,15,17,19,25.00
2014,09,15,17,20,25.10
2014,09,15,17,21,25.10
2014,09,15,17,22,25.10
2014,09,15,17,23,25.20